This is the latest recevied weather packets stored in our database for station/object WL7CLI. If no packets are shown the sender has not sent any weather packets the latest 10 day(s).
| Time | Temp. | Humidity | Pressure | Rain* | Wind** | Luminosity | Snow |
|---|---|---|---|---|---|---|---|
| 1778099899 | 14.44° C | 37% | 1017.3 hPa | 0 mm | - | - | - |
| 1778099775 | 14.44° C | 32% | 1017.3 hPa | 0 mm | - | - | - |
| 1778099305 | 13.89° C | 39% | 1016.8 hPa | 0 mm | - | - | - |
| 1778098699 | 14.44° C | 32% | 1017.4 hPa | 0 mm | - | - | - |
| 1778098573 | 15° C | 32% | 1017.4 hPa | 0 mm | - | - | - |
| 1778097505 | 14.44° C | 35% | 1017.2 hPa | 0 mm | - | - | - |
| 1778097499 | 14.44° C | 35% | 1017.6 hPa | 0 mm | - | - | - |
| 1778097374 | 14.44° C | 33% | 1017.6 hPa | 0 mm | - | - | - |
| 1778096299 | 14.44° C | 37% | 1017.7 hPa | 0 mm | - | - | - |
| 1778096175 | 13.89° C | 35% | 1017.7 hPa | 0 mm | - | - | - |
| 1778095705 | 13.89° C | 36% | 1017.1 hPa | 0 mm | - | - | - |
| 1778095099 | 13.33° C | 36% | 1017.8 hPa | 0 mm | - | - | - |
| 1778094975 | 13.33° C | 35% | 1017.9 hPa | 0 mm | - | - | - |
| 1778093905 | 13.33° C | 33% | 1017.3 hPa | 0 mm | - | - | - |
| 1778093899 | 13.33° C | 33% | 1017.9 hPa | 0 mm | - | - | - |
| 1778093775 | 13.33° C | 37% | 1017.9 hPa | 0 mm | - | - | - |
| 1778092698 | 12.22° C | 35% | 1018 hPa | 0 mm | - | - | - |
| 1778092575 | 12.78° C | 34% | 1018.1 hPa | 0 mm | - | - | - |
| 1778092105 | 12.78° C | 35% | 1017.5 hPa | 0 mm | - | - | - |
| 1778091499 | 12.22° C | 37% | 1018.2 hPa | 0 mm | - | - | - |
| 1778091374 | 12.22° C | 38% | 1018.3 hPa | 0 mm | - | - | - |
| 1778090304 | 12.22° C | 39% | 1017.8 hPa | 0 mm | - | - | - |
| 1778090300 | 12.22° C | 39% | 1018.3 hPa | 0 mm | - | - | - |
| 1778090176 | 12.22° C | 40% | 1018.4 hPa | 0 mm | - | - | - |
| 1778089099 | 11.67° C | 39% | 1018.5 hPa | 0 mm | - | - | - |
* Rain latest hour (hover to see other rain measurements)
** Current wind speed in m/s (hover to see current wind gust speed)